Weather History for Baltimore, MD

Change the Weather History Date:

Thursday, April 3, 2014

  Actual Average Record
Temperature  
Mean Temperature 56 °F 50 °F  
Max Temperature 63 °F 60 °F 88 °F (1963)
Min Temperature 48 °F 39 °F 27 °F (1965)
Degree Days  
Heating Degree Days 9 16  
Month to date heating degree days 38 48  
Since 1 July heating degree days 4608 4309  
Cooling Degree Days 0 0  
Month to date cooling degree days 0 0  
Year to date cooling degree days 0 1  
Growing Degree Days 4 (Base 50)    
Moisture  
Dew Point 42 °F    
Average Humidity 63    
Maximum Humidity 93    
Minimum Humidity 32    
Precipitation  
Precipitation 0.03 in 0.12 in 1.83 in (1901)
Month to date precipitation 0.03 0.36  
Year to date precipitation 11.70 10.21  
Snow  
Snow 0.00 in 0.00 in 4.50 in (1915)
Month to date snowfall 0.0 0.0  
Since 1 July snowfall 39.0 20.1  
Snow Depth 0.00 in    
Sea Level Pressure  
Sea Level Pressure 30.05 in    
Wind  
Wind Speed 5 mph (ENE)    
Max Wind Speed 14 mph    
Max Gust Speed 20 mph    
Visibility 10 miles    
Events Rain    
T = Trace of Precipitation, MM = Missing Value Source: NWS Daily Summary

Daily Weather History Graph

Daily Weather History Graph

Search for Another Location

Airport:

Trip Planner

Search our weather history database for the weather conditions in past years. The results will help you decide how hot, cold, wet, or windy it might be!

Date:

Astronomy

Apr. 03, 2014 Rise Set
Actual Time 6:48 AM EDT 7:32 PM EDT
Civil Twilight 6:21 AM EDT 7:59 PM EDT
Nautical Twilight 5:49 AM EDT 8:31 PM EDT
Astronomical Twilight 5:16 AM EDT 9:04 PM EDT
Moon 9:16 AM EDT (4/3) 11:48 PM EDT (4/3)
Length of Visible Light 13h 38m
Length of Day
12h 44m
Waxing Crescent, 17% of the Moon is Illuminated
Apr 3
Waxing Crescent
Apr 7
First Quarter
Apr 15
Full
Apr 22
Last Quarter
Apr 29
New

Hourly Weather History & Observations

Time (EDT) Temp. Dew Point Humidity Pressure Visibility Wind Dir Wind Speed Gust Speed Precip Events Conditions
12:54 AM 48.9 °F 43.0 °F 80% 30.09 in 10.0 mi Calm Calm - N/A   Scattered Clouds
1:54 AM 48.0 °F 43.0 °F 83% 30.09 in 10.0 mi West 3.5 mph - N/A   Mostly Cloudy
2:54 AM 50.0 °F 45.0 °F 83% 30.09 in 8.0 mi Calm Calm - 0.00 in Rain Light Rain
3:54 AM 50.0 °F 46.9 °F 89% 30.09 in 10.0 mi Calm Calm - 0.01 in Rain Light Rain
4:54 AM 50.0 °F 46.9 °F 89% 30.07 in 10.0 mi Calm Calm - 0.01 in   Overcast
5:54 AM 50.0 °F 48.0 °F 93% 30.06 in 10.0 mi West 3.5 mph - N/A   Mostly Cloudy
6:54 AM 50.0 °F 48.0 °F 93% 30.08 in 9.0 mi Calm Calm - N/A   Mostly Cloudy
7:54 AM 53.1 °F 48.0 °F 83% 30.09 in 10.0 mi NNE 4.6 mph - N/A   Mostly Cloudy
8:54 AM 55.0 °F 44.1 °F 67% 30.10 in 10.0 mi NE 10.4 mph 19.6 mph N/A   Mostly Cloudy
9:54 AM 57.0 °F 37.9 °F 49% 30.11 in 10.0 mi East 12.7 mph - N/A   Mostly Cloudy
10:54 AM 59.0 °F 32.0 °F 36% 30.11 in 10.0 mi East 9.2 mph - N/A   Mostly Cloudy
11:54 AM 60.1 °F 30.0 °F 32% 30.09 in 10.0 mi East 6.9 mph - N/A   Mostly Cloudy
12:54 PM 60.1 °F 34.0 °F 38% 30.09 in 10.0 mi ENE 8.1 mph - N/A   Overcast
1:54 PM 61.0 °F 35.1 °F 38% 30.06 in 10.0 mi NE 6.9 mph - N/A   Mostly Cloudy
2:54 PM 61.0 °F 37.0 °F 41% 30.04 in 10.0 mi ESE 3.5 mph - N/A   Overcast
3:54 PM 61.0 °F 37.9 °F 42% 30.02 in 10.0 mi ENE 9.2 mph - N/A   Overcast
4:54 PM 60.1 °F 39.0 °F 46% 29.99 in 10.0 mi ENE 11.5 mph - N/A   Overcast
5:54 PM 59.0 °F 39.9 °F 49% 30.00 in 10.0 mi Calm Calm - 0.00 in Rain Light Rain
6:54 PM 55.9 °F 44.1 °F 64% 29.96 in 10.0 mi East 5.8 mph - 0.00 in   Overcast
7:54 PM 55.0 °F 44.1 °F 67% 29.97 in 10.0 mi Calm Calm - N/A   Overcast
8:54 PM 55.0 °F 43.0 °F 64% 29.98 in 9.0 mi Calm Calm - N/A   Overcast
9:54 PM 54.0 °F 44.1 °F 69% 30.00 in 10.0 mi ENE 3.5 mph - 0.00 in Rain Light Rain
11:54 PM 50.0 °F 46.0 °F 86% 29.97 in 5.0 mi East 10.4 mph - N/A   Mostly Cloudy